NIMBUS 2 DEB, 28208

Orbit data source: Space-Track

NIMBUS 2 DEB, 28208 is space debris in SSO originally from a launch on Sun, 15 May 1966 UTC launched from the Air Force Western Test Range (AFWTR). Debris objects in space refer to the collection of defunct objects orbiting the Earth. Examples of debris include non-operational satellites, rocket bodies, and fragments generated from explosions, collisions, or faulty payload assembly.

Loading next visibility...
Identifier
28208, 1966-040W
Orbit
SSO
Country
Flag of USUS
Related business
Manufacturer
Unknown
Mission
Spacecraft
Bus & Motor
Unknown
Mass
Unknown
Launch date (UTC)
1966-05-15 (59 years ago)
Launch vehicle
Unknown
Launch site
Air Force Western Test Range (AFWTR)
Object type
Payload
Rocket body
Debris
Shape & HBR
Unknown shape, 0.1 m
Radar Cross Section
Small (<0.1 m²)

Expand to show TLE details & history
Last TLE update: 8 hours ago

TLE from 8 hours ago
0 NIMBUS 2 DEB
1 28208U 66040W   25286.98088985  .00002771  00000-0  34599-2 0  9993
2 28208 100.3271 302.7686 0047054 135.6581 255.6733 13.64986586221470
Epoch: 2025-10-13T23:32Z
TLE epoch observation values (Epoch: 2025-10-13T23:32:28.883Z)
Latitude
30.31027°
Longitude
-79.21093°
Altitude
1,030.082 km
Speed
7.335 km/s
True Right ascension
19h 46m 44s
True Declination
30° 09' 58"
Sunlit
Object was in daylight at epoch
Visualization orbit readout
Latitude
Unknown
Longitude
Unknown
Altitude
Unknown
Speed
Unknown
Apparent Right ascension
Unknown
Apparent Declination
Unknown
Sunlit
N/A
Visualization observer readout
Local Sidereal Time
01:38:09
Azimuth
Unknown
Elevation
Unknown
Doppler factor
Unknown
Orbital elements
Apogee altitude
1,049.727 km
Perigee altitude
980.152 km
Semi-major axis
7,393.077 km
Eccentricity
0.00471
Inclination
100.3271°
RAAN
302.7686°
Arg. of periapsis
135.6581°
True anomaly
255.15164°
Mean anomaly
255.6733°
Eccentric anomaly
255.41239°
Mean motion
3.41433 °/min
Orbital period
105.44 mins
BSTAR
0.0034599
Loading maneuver chart data...
Computing Atmospheric mass density...
Loading historical data...
Loading historical data...
Loading historical data...
Loading historical data...
Loading historical data...
Loading historical data...
Loading historical data...

Documentation

Showing up to 5 results
|